Metropolis, IL

6:36 PM CDT on September 21, 2017 (GMT -0500)
Metropolis

Weather History for KM30 - April, 2014

Change the Weather History Date:

Wednesday, April 16, 2014

  Actual Average (KPAH) Record (KPAH)
Temperature  
Mean Temperature 44 °F -  
Max Temperature 58 °F 69 °F 87 °F (1977)
Min Temperature 30 °F 46 °F 27 °F (1962)
Degree Days  
Heating Degree Days 21    
Moisture  
Dew Point 25 °F    
Average Humidity 52    
Maximum Humidity 88    
Minimum Humidity 24    
Precipitation  
Precipitation 0.00 in - - ()
Sea Level Pressure  
Sea Level Pressure 30.24 in    
Wind  
Wind Speed 3 mph (ESE)    
Max Wind Speed 12 mph    
Max Gust Speed 21 mph    
Visibility 10 miles    
Events      
Averages and records for this station are not official NWS values.
T = Trace of Precipitation, MM = Missing Value Source: NWS Daily Summary

Daily Weather History Graph

Daily Weather History Graph

Search for Another Location

Airport or City:

Trip Planner

Search our weather history database for the weather conditions in past years. The results will help you decide how hot, cold, wet, or windy it might be!

Date:

Astronomy

Apr. 16, 2014 Rise Set
Actual Time 6:19 AM CDT 7:30 PM CDT
Civil Twilight 5:52 AM CDT 7:57 PM CDT
Nautical Twilight 5:20 AM CDT 8:30 PM CDT
Astronomical Twilight 4:46 AM CDT 9:03 PM CDT
Moon 9:12 PM CDT (4/16) 7:07 AM CDT (4/16)
Length of Visible Light 14h 05m
Length of Day
13h 11m
Full, 98% of the Moon is Illuminated
Apr 16
Full
Apr 22
Last Quarter
Apr 29
New
May 6
First Quarter
May 14
Full

Hourly Weather History & Observations

Time (CDT) Temp. Windchill Dew Point Humidity Pressure Visibility Wind Dir Wind Speed Gust Speed Precip Events Conditions
12:15 AM 33.8 °F - 25.7 °F 72% 30.26 in 10.0 mi Calm Calm - N/A   Clear
12:35 AM 34.5 °F - 24.6 °F 67% 30.27 in 10.0 mi Calm Calm - N/A   Clear
12:55 AM 33.8 °F - 27.1 °F 77% 30.27 in 10.0 mi Calm Calm - N/A   Clear
1:15 AM 33.1 °F - 27.0 °F 78% 30.27 in 10.0 mi Calm Calm - N/A   Clear
1:35 AM 32.4 °F - 26.6 °F 79% 30.27 in 10.0 mi Calm Calm - N/A   Clear
1:55 AM 32.5 °F - 27.9 °F 83% 30.28 in 10.0 mi Calm Calm - N/A   Clear
2:15 AM 32.0 °F - 27.5 °F 83% 30.28 in 10.0 mi Calm Calm - N/A   Clear
2:35 AM 32.0 °F - 27.1 °F 82% 30.28 in 10.0 mi Calm Calm - N/A   Clear
2:55 AM 31.8 °F - 26.6 °F 81% 30.28 in 10.0 mi Calm Calm - N/A   Clear
3:15 AM 31.6 °F - 26.6 °F 82% 30.28 in 10.0 mi Calm Calm - N/A   Clear
3:35 AM 31.8 °F - 27.1 °F 83% 30.28 in 10.0 mi Calm Calm - N/A   Clear
3:55 AM 31.1 °F 27.7 °F 27.3 °F 86% 30.28 in 10.0 mi East 3.5 mph - N/A   Clear
4:15 AM 32.0 °F - 26.6 °F 80% 30.28 in 10.0 mi Calm Calm - N/A   Clear
4:35 AM 31.8 °F - 27.1 °F 83% 30.28 in 10.0 mi Calm Calm - N/A   Clear
4:55 AM 30.9 °F - 26.2 °F 83% 30.28 in 10.0 mi Calm Calm - N/A   Clear
5:15 AM 30.7 °F - 26.1 °F 83% 30.28 in 10.0 mi Calm Calm - N/A   Clear
5:35 AM 32.0 °F - 26.6 °F 80% 30.28 in 10.0 mi Calm Calm - N/A   Clear
5:55 AM 31.1 °F - 26.4 °F 83% 30.28 in 10.0 mi Calm Calm - N/A   Clear
6:15 AM 31.1 °F - 26.2 °F 82% 30.28 in 10.0 mi Calm Calm - N/A   Clear
6:35 AM 30.6 °F - 27.0 °F 86% 30.29 in 10.0 mi Calm Calm - N/A   Clear
6:55 AM 31.1 °F - 28.0 °F 88% 30.30 in 10.0 mi Calm Calm - N/A   Clear
7:15 AM 34.2 °F 31.2 °F 26.1 °F 72% 30.31 in 10.0 mi East 3.5 mph - N/A   Clear
7:35 AM 35.8 °F 31.9 °F 26.1 °F 68% 30.32 in 10.0 mi East 4.6 mph - N/A   Clear
7:55 AM 37.2 °F 33.6 °F 26.4 °F 65% 30.32 in 10.0 mi East 4.6 mph - N/A   Clear
8:15 AM 39.4 °F 36.1 °F 26.4 °F 60% 30.32 in 10.0 mi East 4.6 mph - N/A   Clear
8:35 AM 40.6 °F 35.4 °F 26.2 °F 57% 30.32 in 10.0 mi ESE 8.1 mph - N/A   Clear
8:55 AM 42.8 °F 37.0 °F 25.3 °F 50% 30.32 in 10.0 mi ESE 10.4 mph 16.1 mph N/A   Clear
9:15 AM 43.0 °F 38.8 °F 23.2 °F 46% 30.32 in 10.0 mi SE 6.9 mph - N/A   Clear
9:35 AM 43.9 °F 38.8 °F 22.3 °F 42% 30.32 in 10.0 mi ESE 9.2 mph - N/A   Clear
9:55 AM 44.6 °F 38.8 °F 20.3 °F 38% 30.33 in 10.0 mi ESE 11.5 mph - N/A   Clear
10:15 AM 45.5 °F 40.3 °F 20.3 °F 37% 30.33 in 10.0 mi East 10.4 mph 17.3 mph N/A   Clear
10:35 AM 46.0 °F 41.0 °F 20.1 °F 36% 30.33 in 10.0 mi SE 10.4 mph - N/A   Clear
10:55 AM 47.3 °F - 21.4 °F 36% 30.33 in 10.0 mi SE 9.2 mph - N/A   Clear
11:15 AM 48.4 °F - 21.7 °F 35% 30.32 in 10.0 mi East 9.2 mph - N/A   Clear
11:35 AM 49.3 °F - 21.4 °F 33% 30.31 in 10.0 mi East 6.9 mph - N/A   Clear
11:55 AM 50.4 °F - 20.5 °F 31% 30.30 in 10.0 mi SE 8.1 mph - N/A   Clear
12:15 PM 50.7 °F - 18.9 °F 28% 30.29 in 10.0 mi East 6.9 mph - N/A   Clear
12:35 PM 50.7 °F - 17.1 °F 26% 30.28 in 10.0 mi SE 11.5 mph - N/A   Clear
12:55 PM 52.5 °F - 20.5 °F 29% 30.27 in 10.0 mi ESE 4.6 mph - N/A   Clear
1:15 PM 51.8 °F - 18.5 °F 27% 30.26 in 10.0 mi SE 9.2 mph - N/A   Clear
1:35 PM 53.1 °F - 18.1 °F 25% 30.25 in 10.0 mi ESE 9.2 mph - N/A   Clear
1:55 PM 53.6 °F - 18.0 °F 25% 30.24 in 10.0 mi ESE 5.8 mph - N/A   Clear
2:15 PM 54.7 °F - 19.2 °F 25% 30.23 in 10.0 mi ESE 9.2 mph - N/A   Clear
2:35 PM 54.5 °F - 18.3 °F 24% 30.22 in 10.0 mi ESE 10.4 mph - N/A   Clear
2:55 PM 54.9 °F - 21.4 °F 27% 30.20 in 10.0 mi East 10.4 mph 20.7 mph N/A   Clear
3:15 PM 55.2 °F - 20.1 °F 25% 30.19 in 10.0 mi East 6.9 mph - N/A   Clear
3:35 PM 55.2 °F - 20.1 °F 25% 30.18 in 10.0 mi ESE 5.8 mph - N/A   Clear
3:55 PM 56.3 °F - 20.8 °F 25% 30.17 in 10.0 mi East 8.1 mph - N/A   Clear
4:15 PM 57.2 °F - 21.9 °F 26% 30.16 in 10.0 mi East 6.9 mph - N/A   Clear
4:35 PM 57.6 °F - 21.0 °F 24% 30.16 in 10.0 mi ESE 4.6 mph - N/A   Clear
4:55 PM 58.1 °F - 21.2 °F 24% 30.15 in 10.0 mi SE 6.9 mph - N/A   Clear
5:15 PM 56.8 °F - 20.1 °F 24% 30.14 in 10.0 mi ESE 8.1 mph - N/A   Clear
5:35 PM 57.2 °F - 20.3 °F 24% 30.13 in 10.0 mi ESE 5.8 mph - N/A   Clear
5:55 PM 56.5 °F - 21.7 °F 26% 30.13 in 10.0 mi ESE 6.9 mph - N/A   Clear
6:15 PM 56.7 °F - 23.5 °F 28% 30.13 in 7.0 mi East 4.6 mph - N/A   Clear
6:35 PM 55.8 °F - 24.6 °F 30% 30.14 in 10.0 mi East 3.5 mph - N/A   Clear
6:55 PM 54.9 °F - 24.3 °F 31% 30.13 in 10.0 mi East 3.5 mph - N/A   Clear
7:15 PM 54.5 °F - 24.3 °F 31% 30.13 in 10.0 mi ESE 3.5 mph - N/A   Clear
7:35 PM 53.4 °F - 25.7 °F 34% 30.13 in 10.0 mi Calm Calm - N/A   Clear
7:55 PM 52.0 °F - 26.6 °F 37% 30.14 in 10.0 mi Calm Calm - N/A   Clear
8:15 PM 50.5 °F - 28.4 °F 42% 30.15 in 10.0 mi Calm Calm - N/A   Clear
8:35 PM 48.7 °F - 29.1 °F 47% 30.15 in 10.0 mi Calm Calm - N/A   Clear
8:55 PM 47.3 °F - 29.5 °F 50% 30.15 in 10.0 mi Calm Calm - N/A   Clear
9:15 PM 47.8 °F - 29.7 °F 49% 30.16 in 10.0 mi Calm Calm - N/A   Clear
9:30 PM 45.7 °F - 31.8 °F 58% 30.16 in 10.0 mi Calm Calm - N/A   Clear
9:55 PM 45.0 °F - 32.0 °F 60% 30.17 in 10.0 mi Calm Calm - N/A   Clear
10:15 PM 44.1 °F - 30.6 °F 59% 30.17 in 10.0 mi Calm Calm - N/A   Clear
10:35 PM 43.7 °F 42.1 °F 30.9 °F 61% 30.16 in 10.0 mi East 3.5 mph - N/A   Clear
10:55 PM 45.5 °F 44.2 °F 30.4 °F 56% 30.16 in 10.0 mi ESE 3.5 mph - N/A   Clear
11:15 PM 45.1 °F - 31.1 °F 58% 30.16 in 10.0 mi Calm Calm - N/A   Clear
11:35 PM 45.0 °F - 31.1 °F 58% 30.17 in 10.0 mi Calm Calm - N/A   Clear
11:55 PM 42.8 °F - 32.0 °F 66% 30.17 in 10.0 mi Calm Calm - N/A   Clear